Regional Weather Roundup
Issued by NWS

Home | Current Version | Previous Version | Graphics & Text | Print | Product List | Glossary On
Versions: 1 2 3 4 5 6 7 8 9 10 11 12 13 14 15 16 17 18 19 20 21 22 23 24 25 26 27 28 29 30 31 32 33 34 35 36 37 38 39 40 41 42 43 44 45 46 47 48 49 50
000
ASUS43 KBIS 311802
RWRND

NORTH DAKOTA REGIONAL WEATHER ROUNDUP
NATIONAL WEATHER SERVICE BISMARCK ND
100 PM CDT TUE MAY 31 2016

NOTE: "FAIR" INDICATES FEW OR NO CLOUDS BELOW 12,000 FEET WITH NO
SIGNIFICANT WEATHER AND/OR OBSTRUCTIONS TO VISIBILITY.


NDZ001>003-009>011-017-311900-
NORTHWEST NORTH DAKOTA

CITY           SKY/WX    TMP DP  RH WIND       PRES   REMARKS
WILLISTON      LGT RAIN  53  49  86 N25G45    29.77R
6HR MIN TEMP:  52; 6HR MAX TEMP:  54; 6HR PCP:  0.34;

MINOT          PTSUNNY   65  48  54 SW12G17   29.60F
MINOT AFB      SUNNY     64  51  63 S7        29.58S
$$

NDZ018>021-031>035-040>046-311900-
SOUTHWEST NORTH DAKOTA

CITY           SKY/WX    TMP DP  RH WIND       PRES   REMARKS
BISMARCK       LGT RAIN  57  50  77 W18G30    29.69F
6HR MIN TEMP:  49; 6HR MAX TEMP:  64; 6HR PCP:  0.01;

DICKINSON      LGT RAIN  50  47  89 NW28G38   29.68R
GARRISON         N/A     59  49  69 W13       29.63S
6HR MIN TEMP:  50; 6HR MAX TEMP:  60;

HETTINGER ARPT RAIN      51  49  92 W31G40    29.76F FOG
$$

NDZ004>008-012>016-024-026-027-054-311900-
NORTHEAST NORTH DAKOTA

CITY           SKY/WX    TMP DP  RH WIND       PRES   REMARKS
GRAND FORKS    PTSUNNY   66  56  70 SW18G24   29.69S
GRND FRKS AFB  PTSUNNY   65  55  70 SW16      29.69S
DEVILS LAKE    LGT RAIN  57  52  83 SW10      29.68S
$$

NDZ022-023-025-028>030-036>039-047>053-311900-
SOUTHEAST NORTH DAKOTA

CITY           SKY/WX    TMP DP  RH WIND       PRES   REMARKS
FARGO          MOSUNNY   68  47  46 SW21G26   29.75S
6HR MIN TEMP:  62; 6HR MAX TEMP:  69;

JAMESTOWN      CLOUDY    61  47  59 SW18G26   29.72F
$$




USA.gov is the U.S. government's official web portal to all federal, state and local government web resources and services.